Starlink 3632

operational
NORAD ID: 51784 Int'l Des: 2022-017 Owner: SPXS Country: US Constellation: starlink
LEOCIRCULAR

About Starlink 3632

Description loading...

Live Position

Loading 3D Globe...

Upcoming Passes

Altitude History

Altitude vs Time

uPlot chart will show altitude changes over time

Two-Line Element Set

1 51784U 22017S 25350.99648930 .00001507 00000-0 11273-3 0 9990
2 51784 53.2192 0.3454 0001218 77.5720 282.5408 15.08838197209791
Epoch: Dec 16, 2025 • Age: 6 hours

Current Status

Altitude 540.0 km
Velocity 7.59 km/s
Sub-Earth Point 8.21°N, 5.55°E
Launch Date Feb 25, 2022
Age 3.8 years
Type internet

Technical Details

Classification Payload
Mass 297.00 kg
Dry Mass 275.00 kg
Total Mass 297.00 kg
Length 0.20 m
Diameter 2.80 m
Span 9.00 m
Shape Box + pan
Manufacturer SPXS
Bus Type Starlink
Phase Status In Orbit
Owner/State SPXS/US

Large Constellations

Loading constellations...